Regional Weather Roundup
Issued by NWS Portland, ME

Home | Current Version | Previous Version | Text Only | Print | Product List | Glossary On
Versions: 1 2 3 4 5 6 7 8 9 10 11 12 13 14 15 16 17 18 19 20 21 22 23 24 25 26 27 28 29 30 31 32 33 34 35 36 37 38 39 40 41 42 43 44 45 46 47 48 49 50
000
ASUS41 KGYX 221310
RWRGYX
WEATHER ROUNDUP FOR MAINE AND NEW HAMPSHIRE
NATIONAL WEATHER SERVICE GRAY ME
800 AM EST MON DEC 22 2014

MEZ002-005-006-010-012-015-018-020-021-024-026-027-029-221400-
MAINE

CITY           SKY/WX    TMP DP  RH WIND       PRES   REMARKS
PORTLAND       MOCLDY    32  26  78 NE5       30.42S
SANFORD        CLOUDY    30  23  74 N5        30.41R
BAR HARBOR     CLOUDY    28  27  93 N3        30.44R
WISCASSET      CLOUDY    29  25  85 CALM      30.44R
ROCKLAND       CLOUDY    32  28  86 N5        30.42R
FRYEBURG       CLOUDY    26  22  84 CALM      30.41R
LEWISTONAUBURN CLOUDY    28  25  86 CALM      30.42R
AUGUSTA        CLOUDY    26  24  92 N6        30.42S
WATERVILLE     CLOUDY    27  21  80 N3        30.40R
BANGOR         CLOUDY    27  24  89 N3        30.44R
GREENVILLE       N/A     23  21  92 CALM      30.34R
MILLINOCKET    CLOUDY    26  25  96 CALM      30.44R
HOULTON        CLOUDY    23  21  92 CALM      30.41R
PRESQUE ISLE   CLOUDY    23  14  68 CALM      30.41R
FRENCHVILLE    CLOUDY    18  17  96 S3        30.37R
CARIBOU        CLOUDY    22  20  92 CALM      30.40R
$$

NHZ002-005-008-009-011-012-014-221400-
NEW HAMPSHIRE

CITY           SKY/WX    TMP DP  RH WIND       PRES   REMARKS
PORTSMOUTH     CLOUDY    31  25  78 VRB2      30.39S
ROCHESTER      CLOUDY    30  24  78 N6        30.39S
NASHUA         CLOUDY    32  27  82 CALM      30.40S
MANCHESTER     CLOUDY    32  26  78 N5        30.38R
CONCORD        CLOUDY    30  28  92 NW3       30.39S
LACONIA        CLOUDY    30  25  80 NE6       30.36S
PLYMOUTH       CLOUDY    28  28 100 CALM      30.38S
BERLIN         CLOUDY    23  19  85 CALM      30.36R
WHITEFIELD     CLOUDY    25  22  88 CALM      30.36R
JAFFREY        CLOUDY    29  27  92 CALM      30.34S
KEENE          CLOUDY    30  30 100 CALM      30.36F
LEBANON        CLOUDY    28  24  85 CALM      30.37S
MT WASHINGTON  MOCLDY    14   3  62 W25         N/A  WCI  -5
$$

VTZ005-007-008-221400-
VERMONT

CITY           SKY/WX    TMP DP  RH WIND       PRES   REMARKS
ST JOHNSBURY     N/A     26  23  88 MISG      30.36S
MONTPELIER     CLOUDY    23  21  92 CALM      30.38R
BURLINGTON     MOCLDY    23  19  85 N6        30.38S FOG
$$

MAZ007-012-024-CTZ003-RIZ002-NYZ038-NYZ072-221400-
SOUTHERN NEW ENGLAND AND NY

CITY           SKY/WX    TMP DP  RH WIND       PRES   REMARKS
BOSTON         MOCLDY    34  28  79 CALM      30.39S
WORCESTER      CLOUDY    29  27  92 NE5       30.34R
NANTUCKET      MOCLDY    42  40  92 E3        30.34R
PROVIDENCE     CLOUDY    35  31  85 N8        30.37S
HARTFORD       CLOUDY    34  30  85 N6        30.34S
ALBANY         FLURRIES  29  24  82 N3        30.36S
NEW YORK CITY  CLOUDY    37  32  82 NE7       30.32R
$$

ANZ081-ANZ082-ANZ150-NHZ014-MEZ023>029-221400-
COASTAL MARINE OBSERVATIONS

STATION/POSITION TIME  TEMP    WIND        PRES    WAVE
                       AIR SEA DIR/SP/G            HT/PER
                 (UTC) (F)     (DEG/KT/KT) (MB)    (FT/S)
MOUNT DESERT ROC 1200   39                 1028.9R
MATINICUS ROCK   1300           70/ 16/ 19 1029.3R
PORTLAND WX BUOY 1250   33 42   30/ 12/ 14 1029.5F   3/ 7
WELLS            1200   31 38   10/  7/  9 1028.8R
ISLE OF SHOALS   1300   35      30/ 15/ 16 1028.5S
JEFFREYS LEDGE   1221      49                N/A     4/ 7
CASHES LEDGE BUO 1250   41 48   50/ 10/ 12 1028.5S   4/ 6
$$

.............KEY..............
   WCI - WIND CHILL
   TC  - TEMPERATURE IN CELSIUS
   VSB - VISIBILITY IN MILES
   HX  - HEAT INDEX
   FAIR- INDICATES FEW OR NO CLOUDS BELOW 12,000 FT, WITH NO
         SIGNIFICANT WEATHER AND/OR OBSTRUCTIONS TO VISIBILITY.





USA.gov is the U.S. government's official web portal to all federal, state and local government web resources and services.